CW0262 Weather Reports


Display with metric or nautical units.
time (UTC)temp
F
wind
direction
speed
MPH
gust
MPH
rain 1hr
in
rain 24hr
in
rain mn
in
humidity
%
barometer
mb
20260906163705 89 296 5.0 8.0 0.00 1.34 0.00 81 1011.9
20260906163204 89 317 5.0 8.0 0.00 1.34 0.00 82 1011.9
20260906161703 88 299 7.0 8.0 0.00 1.34 0.00 83 1012.9
20260906161203 88 350 3.0 6.0 0.00 1.34 0.00 83 1012.9
20260906160704 88 326 2.0 8.0 0.00 1.34 0.00 85 1012.9
20260906160204 88 290 3.0 8.0 0.00 1.34 0.00 84 1012.9
20260906154704 88 328 3.0 6.0 0.00 1.34 0.00 86 1012.9
20260906154203 88 289 2.0 8.0 0.00 1.34 0.00 87 1012.9
20260906153704 87 310 2.0 8.0 0.00 1.34 0.00 85 1012.9
20260906153204 87 304 3.0 9.0 0.00 1.34 0.00 87 1012.9
20260906151203 86 291 5.0 6.0 0.00 1.34 0.00 88 1012.9
20260906150704 86 280 1.0 6.0 0.00 1.34 0.00 88 1012.9
20260906150203 86 314 4.0 9.0 0.00 1.34 0.00 88 1012.9
20260906143703 85 341 5.0 6.0 0.00 1.34 0.00 91 1012.9
20260906143205 85 303 3.0 8.0 0.00 1.34 0.00 92 1012.9
20260906141703 84 305 7.0 12.0 0.00 1.34 0.00 91 1012.9
20260906141204 84 339 7.0 10.0 0.00 1.34 0.00 92 1012.9
20260906140704 83 290 7.0 13.0 0.00 1.34 0.00 90 1012.9
20260906140203 83 302 6.0 12.0 0.00 1.34 0.00 92 1012.9
20260906134704 83 317 7.0 12.0 0.00 1.34 0.00 93 1012.9
20260906134205 82 326 7.0 9.0 0.00 1.34 0.00 94 1012.9
20260906131703 81 324 5.0 8.0 0.00 1.34 0.00 99 1012.9
20260906131204 81 292 6.0 8.0 0.00 1.34 0.00 100 1012.9
20260906130704 80 306 6.0 9.0 0.00 1.34 0.00 100 1012.9
20260906130203 80 321 4.0 9.0 0.00 1.34 0.00 100 1012.9
20260906124704 79 311 6.0 9.0 0.00 1.34 0.00 100 1012.9
20260906124204 79 301 5.0 6.0 0.00 1.34 0.00 100 1012.9
20260906123703 79 304 5.0 6.0 0.00 1.34 0.00 100 1012.9
20260906123204 79 301 4.0 8.0 0.00 1.34 0.00 100 1012.9
20260906121703 78 322 3.0 6.0 0.00 1.34 0.00 100 1012.9
20260906120704 78 317 4.0 6.0 0.00 1.34 0.00 100 1012.9
20260906120204 78 316 4.0 6.0 0.00 1.34 0.00 100 1012.9
20260906114704 77 321 2.0 3.0 0.00 1.34 0.00 100 1012.9
20260906114204 77 349 0.0 2.0 0.00 1.34 0.00 100 1012.9
20260906113705 77 0 0.0 0.0 0.00 1.34 0.00 100 1012.9
20260906111704 76 297 0.0 0.0 0.00 1.34 0.00 100 1011.9
20260906111203 76 300 0.0 2.0 0.00 1.34 0.00 100 1011.9
20260906110705 76 302 1.0 3.0 0.00 1.34 0.00 100 1011.9
20260906110203 76 290 1.0 3.0 0.00 1.34 0.00 100 1011.9
20260906104204 76 267 0.0 3.0 0.00 1.34 0.00 100 1011.9
20260906103704 76 275 1.0 3.0 0.00 1.34 0.00 100 1011.9
20260906103205 76 321 2.0 3.0 0.00 1.34 0.00 100 1010.9
20260906101204 76 295 0.0 3.0 0.00 1.34 0.00 100 1010.9
20260906100703 76 295 2.0 3.0 0.00 1.34 0.00 100 1010.9
20260906100203 76 300 1.0 3.0 0.00 1.34 0.00 100 1010.9
20260906094704 76 262 1.0 2.0 0.00 1.34 0.00 100 1010.9
20260906093704 76 237 0.0 0.0 0.00 1.34 0.00 100 1010.9
20260906091203 76 238 0.0 2.0 0.00 1.34 0.00 100 1010.9
20260906090204 76 249 1.0 5.0 0.00 1.34 0.00 100 1010.9
20260906084704 76 236 3.0 6.0 0.00 1.34 0.00 100 1010.9
20260906084204 76 237 3.0 6.0 0.00 1.34 0.00 100 1010.9
20260906083204 76 235 3.0 6.0 0.00 1.34 0.00 100 1010.9
20260906081704 77 231 3.0 3.0 0.00 1.34 0.00 100 1010.9
20260906081203 77 227 2.0 3.0 0.00 1.34 0.00 100 1010.9
20260906080204 77 233 0.0 3.0 0.00 1.34 0.00 100 1010.9
20260906074704 77 253 2.0 3.0 0.00 1.34 0.00 100 1010.9
20260906074204 77 256 2.0 3.0 0.00 1.34 0.00 100 1010.9
20260906073704 77 244 3.0 6.0 0.00 1.34 0.00 100 1010.9
20260906073204 77 242 3.0 5.0 0.00 1.34 0.00 100 1010.9
20260906071704 77 245 0.0 3.0 0.00 1.34 0.00 100 1010.9
20260906071204 77 268 3.0 5.0 0.00 1.34 0.00 100 1010.9
20260906070704 77 251 4.0 6.0 0.00 1.34 0.00 100 1010.9
20260906070203 77 243 0.0 6.0 0.00 1.34 0.00 100 1010.9
20260906064704 77 244 3.0 5.0 0.00 1.34 0.00 100 1010.9
20260906064203 77 226 3.0 6.0 0.00 1.34 0.00 100 1010.9
20260906063705 77 233 4.0 6.0 0.00 1.34 0.00 100 1010.9
20260906063203 77 211 3.0 6.0 0.00 1.34 0.00 100 1011.9
20260906061704 77 208 0.0 0.0 0.00 1.34 0.00 100 1011.9
20260906060703 77 208 0.0 0.0 0.00 1.34 0.00 100 1011.9
20260906060203 77 208 0.0 3.0 0.00 1.34 0.00 100 1011.9
20260906054703 77 266 1.0 3.0 0.00 1.34 0.00 100 1012.9
20260906054205 77 230 0.0 3.0 0.00 1.34 0.00 100 1012.9
20260906053704 77 181 3.0 3.0 0.00 1.34 0.00 100 1012.9
20260906051704 77 199 0.0 0.0 0.00 1.34 0.00 100 1012.9
20260906051203 77 194 0.0 0.0 0.00 1.34 0.00 100 1012.9
20260906050704 77 178 0.0 0.0 0.00 1.34 0.00 100 1012.9
20260906050204 77 166 0.0 0.0 0.00 1.34 0.00 100 1012.9
20260906044704 77 108 0.0 0.0 0.00 1.34 0.00 100 1012.9
20260906044204 77 108 0.0 0.0 0.00 1.34 0.00 100 1012.9
20260906043704 77 108 0.0 0.0 0.00 1.34 0.00 100 1012.9
20260906043203 78 130 0.0 3.0 0.00 1.34 0.00 100 1012.9
20260906041703 78 190 0.0 3.0 0.00 1.34 0.00 100 1012.9
20260906040704 78 209 0.0 0.0 0.00 1.34 0.00 100 1012.9
20260906034704 78 219 0.0 0.0 0.00 1.34 1.34 100 1012.9
20260906034204 78 275 0.0 0.0 0.00 1.34 1.34 100 1012.9
20260906033703 78 206 0.0 0.0 0.00 1.34 1.34 100 1012.9
20260906033203 78 206 0.0 3.0 0.00 1.34 1.34 100 1012.9
20260906031704 78 227 2.0 6.0 0.00 1.34 1.34 100 1012.9
20260906031203 78 249 3.0 5.0 0.00 1.34 1.34 100 1012.9
20260906030704 78 259 0.0 5.0 0.00 1.34 1.34 100 1012.9
20260906030203 78 277 0.0 6.0 0.00 1.34 1.34 100 1012.9
20260906024204 77 250 3.0 5.0 0.00 1.34 1.34 100 1012.9
20260906023704 77 203 3.0 6.0 0.00 1.34 1.34 100 1012.9
20260906023204 77 164 3.0 6.0 0.00 1.34 1.34 100 1012.9
20260906021704 77 305 0.0 3.0 0.00 1.34 1.34 100 1012.9
20260906021203 77 295 3.0 6.0 0.00 1.34 1.34 100 1012.9
20260906020704 77 273 5.0 8.0 0.00 1.34 1.34 100 1012.9
20260906020203 77 267 5.0 9.0 0.00 1.34 1.34 100 1011.9
20260906014704 77 244 7.0 10.0 0.00 1.34 1.34 100 1012.9
20260906014204 77 231 7.0 9.0 0.00 1.34 1.34 100 1012.9
20260906013704 77 226 6.0 9.0 0.00 1.34 1.34 100 1012.9
20260906013205 77 224 8.0 10.0 0.00 1.34 1.34 100 1012.9
20260906011704 76 295 2.0 3.0 0.00 1.34 1.34 100 1013.9
20260906010704 76 5 2.0 6.0 0.00 1.34 1.34 100 1013.9
20260906010204 76 353 5.0 8.0 0.04 1.34 1.34 100 1013.9
20260906004204 77 4 2.0 6.0 0.31 1.34 1.34 100 1013.9
20260906003704 78 21 3.0 6.0 0.47 1.34 1.34 100 1013.9
20260906003204 78 354 6.0 10.0 0.63 1.34 1.34 100 1013.9
20260906001704 79 4 3.0 6.0 1.26 1.34 1.34 100 1013.9
20260906001204 79 319 0.0 3.0 1.34 1.34 1.34 100 1013.9
20260906000205 79 289 6.0 17.0 1.30 1.30 1.30 100 1013.9
20260905234204 80 231 10.0 17.0 1.02 1.02 1.02 100 1013.9
20260905233704 80 209 9.0 20.0 0.87 0.87 0.87 98 1013.9
20260905233204 81 233 17.0 26.0 0.71 0.71 0.71 96 1012.9
20260905231704 87 239 16.0 29.0 0.08 0.08 0.08 86 1011.9
20260905231204 87 227 12.0 18.0 0.00 0.00 0.00 84 1011.9
20260905224703 88 187 5.0 8.0 0.00 0.00 0.00 79 1011.9
20260905224204 88 202 3.0 8.0 0.00 0.00 0.00 79 1011.9
20260905223703 88 120 5.0 9.0 0.00 0.00 0.00 80 1011.9
20260905223203 88 138 3.0 8.0 0.00 0.00 0.00 80 1011.9
20260905221704 89 114 7.0 12.0 0.00 0.00 0.00 78 1011.9
20260905220704 89 132 6.0 8.0 0.00 0.00 0.00 74 1011.9
20260905220203 89 135 7.0 10.0 0.00 0.00 0.00 73 1010.9
20260905214703 90 123 6.0 10.0 0.00 0.00 0.00 72 1010.9
20260905214204 90 114 6.0 10.0 0.00 0.00 0.00 71 1010.9
20260905213704 91 99 6.0 9.0 0.00 0.00 0.00 72 1010.9
20260905213204 91 148 5.0 9.0 0.00 0.00 0.00 70 1011.9
20260905211203 90 122 7.0 9.0 0.00 0.00 0.00 68 1010.9
20260905210703 90 106 8.0 9.0 0.00 0.00 0.00 69 1010.9
20260905210204 91 139 7.0 13.0 0.00 0.00 0.00 68 1010.9
20260905204704 91 160 4.0 8.0 0.00 0.00 0.00 73 1010.9
20260905204204 91 117 7.0 9.0 0.00 0.00 0.00 73 1010.9
20260905203703 91 132 7.0 9.0 0.00 0.00 0.00 73 1010.9
20260905203203 91 111 7.0 9.0 0.00 0.00 0.00 73 1010.9
20260905201703 91 127 6.0 9.0 0.00 0.00 0.00 74 1010.9
20260905201203 91 172 6.0 8.0 0.00 0.00 0.00 75 1010.9
20260905194703 91 145 6.0 9.0 0.00 0.00 0.00 78 1011.9
20260905194203 91 144 7.0 10.0 0.00 0.00 0.00 78 1011.9
20260905193703 91 121 7.0 10.0 0.00 0.00 0.00 78 1011.9
20260905193203 91 148 7.0 15.0 0.00 0.00 0.00 79 1011.9
20260905191704 93 124 7.0 12.0 0.00 0.00 0.00 77 1011.9
20260905191204 93 168 7.0 9.0 0.00 0.00 0.00 77 1011.9
20260905190704 93 129 5.0 7.0 0.00 0.00 0.00 72 1011.9
20260905190204 93 306 2.0 10.0 0.00 0.00 0.00 64 1011.9
20260905184704 93 277 4.0 9.0 0.00 0.00 0.00 66 1011.9
20260905184204 93 294 6.0 9.0 0.00 0.00 0.00 69 1011.9
20260905183203 92 324 6.0 10.0 0.00 0.00 0.00 66 1011.9
20260905181703 91 250 6.0 10.0 0.00 0.00 0.00 70 1012.9
20260905181204 91 242 5.0 9.0 0.00 0.00 0.00 69 1012.9
20260905180703 92 279 5.0 10.0 0.00 0.00 0.00 69 1012.9
20260905180204 92 273 6.0 10.0 0.00 0.00 0.00 69 1012.9
20260905174704 92 255 6.0 8.0 0.00 0.00 0.00 70 1012.9
20260905174205 92 246 6.0 9.0 0.00 0.00 0.00 69 1012.9
20260905173704 92 289 7.0 10.0 0.00 0.00 0.00 69 1012.9
20260905173204 92 279 7.0 13.0 0.00 0.00 0.00 69 1012.9
20260905171704 92 250 4.0 8.0 0.00 0.00 0.00 70 1012.9
20260905171204 92 288 8.0 13.0 0.00 0.00 0.00 71 1012.9
20260905170703 92 265 6.0 10.0 0.00 0.00 0.00 73 1012.9
20260905170204 92 241 8.0 12.0 0.00 0.04 0.00 76 1012.9
20260905164704 91 251 7.0 9.0 0.00 0.08 0.00 74 1012.9